Glendenning Real Estate, NSW, 2761 Blacktown

Thinking about buying in Glendenning? Now could not be a better time, with a whopping 2045 properties either residential or commercial there's certainly plenty to choose from.

The average property price for this area is $822,000 with prices in this suburb ranging from $616,000 to $1,122,000.

Distance to the coast is 34 Km.

Glendenning Real Estate Market Outlook

Prices are above market average and increase steadily under persistent demand. A more sustainable rate of price growth is anticipated in the short to medium term. In this area of average incomes, there is a mix of housing size and quality. While this may present buying opportunities, growth may be constrained. As buyers begin to examine Glendenning due to other areas being out of the price range and the trend to working from home, "gentrification" may incease price growth. The slightly lower than average earnings from occupations in Glendenning changes the housing and lifestyle preference. It is more a matter of what can be afforded rather than what would we prefer, leading to slower price increases over time. Lower than average population density constrains growth in Glendenning to an extent. However, where buyers are willing to compromise on housing and lifestyle choice, there are affordable options. Lower than average industry presence in Glendenning we believe will be less of a negative impact than it has in the past. Post-COVID and the growth in working from home has lessened the demand for local employment options. This may make Glendenning a better buying opportunity than it may have been in the past.

About

For Sale

LJ Hooker 21 CARDINAL CLANCY AV, GLENDENNING, NSW, 2761 3 1 2 Just Listed
RayWhite 41 WINTEN DR, GLENDENNING, NSW, 2761 3 1 2 Under Offer

More

Local Schools


Glendenning Public School

St Francis of Assisi Primary School

(While the above schools are located with the suburb of Glendenning there may also be nearby schools whose catchments cover this suburb)

Local Crime Stats


Average Local Climate by month


(mm)
RAIN
Min (°C)
TEMP
Max (°C)
TEMP
Min (%)
HUMIDITY
Max (%)
HUMIDITY
(m/sec)
WIND
(MJ/sq m)
SOLAR
Jan2.518.631.642.294.32.922.2
Feb3.518.029.746.295.12.718.8
Mar4.615.92749.996.02.415.5
Apr2.212.224.647.496.72.014.0
May1.17.221.146.996.71.711.4
Jun2.35.818.054.2971.99.2
Jul0.63.718.643.994.72.210.7
Aug1.14.320.037.892.82.613.2
Sept1.17.623.234.593.22.917.3
Oct1.511.625.338.794.12.819.7
Nov2.314.828.239.994.12.922.6
Dec2.616.629.839.994.3323.7

source: Australian Government Bureau of Meteorology

Recently Sold

04-05-2022 $810,000 52 BELLINGHAM AVE GLENDENNING 2761
29-04-2022 $1,025,000 8 GERBULIN ST GLENDENNING 2761
19-04-2022 $1,550,000 20 / 197 POWER ST GLENDENNING 2761
29-03-2022 $865,000 58 WOODLEY CRES GLENDENNING 2761
17-03-2022 $830,000 6 GOLDING DR GLENDENNING 2761
07-03-2022 $865,000 146 ARMITAGE DR GLENDENNING 2761
03-03-2022 $830,000 101 WINTEN DR GLENDENNING 2761
02-03-2022 $900,000 21 GLENVIEW GR GLENDENNING 2761
16-02-2022 $1,600,000 20 VOYAGER CCT GLENDENNING 2761
08-02-2022 $870,000 47 WINTEN DR GLENDENNING 2761
24-01-2022 $820,000 10 GLENNIS CL GLENDENNING 2761
21-01-2022 $880,000 17 WINTEN DR GLENDENNING 2761
19-01-2022 $730,000 4 VASSALLO PL GLENDENNING 2761
17-01-2022 $860,000 46 BELLINGHAM AVE GLENDENNING 2761
17-01-2022 $980,000 40 ARMITAGE DR GLENDENNING 2761
17-01-2022 $835,000 10 ROSEGREEN CT GLENDENNING 2761
23-12-2021 $890,000 51 LINDE RD GLENDENNING 2761
20-12-2021 $971,500 10 BAXTER CRES GLENDENNING 2761
17-12-2021 $784,000 21 WOODLEY CRES GLENDENNING 2761
10-12-2021 $1,420,000 19 AINSLEY AVE GLENDENNING 2761
07-12-2021 $850,000 4 AMBROSE ST GLENDENNING 2761
03-12-2021 $2,104,500 150 GLENDENNING RD GLENDENNING 2761
03-12-2021 $2,104,500 65 OWEN ST GLENDENNING 2761
01-12-2021 $800,000 9 MARIN PL GLENDENNING 2761
29-11-2021 $865,000 12 GOLDING DR GLENDENNING 2761
26-11-2021 $650,000 10 MARIN PL GLENDENNING 2761
22-11-2021 $2,101,000 2 / 599 WOODSTOCK AVE GLENDENNING 2761
19-11-2021 $838,000 21 BAXTER CRES GLENDENNING 2761
16-11-2021 $890,000 26 CARDINAL CLANCY AVE GLENDENNING 2761
05-11-2021 $695,000 1 VASSALLO PL GLENDENNING 2761
04-11-2021 $845,000 6 GERBULIN ST GLENDENNING 2761
01-11-2021 $8,300,000 1 RAYBEN ST GLENDENNING 2761
01-11-2021 $39,250,000 15 OWEN ST GLENDENNING 2761
29-10-2021 $283,333 34 WOODLEY CRES GLENDENNING 2761
25-10-2021 $870,000 4 CARDINAL CLANCY AVE GLENDENNING 2761
25-10-2021 $830,000 20 VASSALLO PL GLENDENNING 2761
25-10-2021 $870,000 4 CARDINAL CLANCY AVE GLENDENNING 2761
25-10-2021 $830,000 20 VASSALLO PL GLENDENNING 2761
20-10-2021 $855,000 63 WINTEN DR GLENDENNING 2761
19-10-2021 $800,000 16 ROSEGREEN CT GLENDENNING 2761
18-10-2021 $830,000 26 SAMANTHA CRES GLENDENNING 2761
12-10-2021 $702,000 13 / 54 GOLDING DR GLENDENNING 2761
08-10-2021 $108,000 9 SALLY PL GLENDENNING 2761
01-10-2021 $715,000 3 / 114 ARMITAGE DR GLENDENNING 2761
01-10-2021 $1,200,000 92 ARMITAGE DR GLENDENNING 2761
01-10-2021 $715,000 3 / 114 ARMITAGE DR GLENDENNING 2761
01-10-2021 $1,200,000 92 ARMITAGE DR GLENDENNING 2761
27-09-2021 $700,000 18 BONZER PL GLENDENNING 2761
24-09-2021 $805,500 5 EVELYN PL GLENDENNING 2761
24-09-2021 $705,000 5 ORNELLA AVE GLENDENNING 2761

Residz covers 12m+ Australian properties and brings together a wealth of data to give you a better understanding of an area. From crime and schools to bush fire, flood risk and more. Begin your search for properties for sale or learn more about where you currently reside. Residz is an exciting next-generation Real Estate platform getting better by the day!